Powrót do katalogu

GHOST-3

AktywnyNaukaPO
NORAD 56958·PAYLOAD·🇺🇸 United States

Wystrzelony Jun 12, 2023 z Vandenberg Space Force Base

Loading…

Następne Przeloty (najbliższe 24 godziny)

TLE

ŚwieżeSource: Space-Track

Epoka: Sep 14, 2026, 10:07 UTC

1 56958U 23084AC  26257.42208017  .00016428  00000-0  28656-3 0  9997
2 56958  97.6342  51.0426 0005569 330.9918  29.1022 15.50782079181833

Śledź GHOST-3 w czasie rzeczywistym z AllMySat

Download on the App Store